{"data":{"norad_id":55053,"epoch":"2026-05-25T02:42:04.598208Z","epoch_age_seconds":68442,"freshness":"FRESH","line1":"1 55053U 23001AW  26145.11255322  .00004566  00000+0  14415-3 0  9991","line2":"2 55053  97.3248 205.9205 0009203 188.8434 171.2648 15.33308355188389","mean_motion":15.33308355,"eccentricity":0.0009203,"inclination_deg":97.3248,"raan_deg":205.9205,"arg_perigee_deg":188.8434,"mean_anomaly_deg":171.2648,"bstar":0.00014415,"rev_number":18838,"period_min":93.914573367077,"perigee_km":459.65115100399,"apogee_km":472.2483771019,"semimajor_km":6844.0867640529,"source":"CELESTRAK","updated_at":"2026-05-25T13:37:58.812759Z"}}